Tracking 29090 objects as of 15-Jul-2024
HD Live streaming from Space Station
objects crossing your sky now

UNISAT 7

Track UNISAT 7 now!
10-day predictions
UNISAT 7 is classified as:


NORAD ID: 47945
Int'l Code: 2021-022P
Perigee: 508.3 km
Apogee: 529.8 km
Inclination: 97.5 °
Period: 94.9 minutes
Semi major axis: 6890 km
RCS: Unknown
Launch date: March 22, 2021
Source: (ITA)
Launch site: TYURATAM MISSILE AND SPACE COMPLEX (TTMTR)

Uplink (MHz):
Downlink (MHz): 437.425
Beacon (MHz):
Mode: 9600bps FSK
Call sign: II0US
Status: Active

Your satellite tracking list
Your tracking list is empty




NASA's NSSDC Master Catalog

Two Line Element Set (TLE):
1 47945U 21022P   24197.71429398  .00011497  00000-0  56664-3 0  9994
2 47945  97.4561  93.0861 0015629  47.4008 312.8541 15.17994749182636
Source of the keplerian elements: AFSPC